DELTA 1 DEB, 10831

Orbit data source: Space-Track

DELTA 1 DEB, 10831 is space debris in SSO originally from a launch on Thu, 29 Jul 1976 UTC launched from the Air Force Western Test Range (AFWTR). Debris objects in space refer to the collection of defunct objects orbiting the Earth. Examples of debris include non-operational satellites, rocket bodies, and fragments generated from explosions, collisions, or faulty payload assembly.

Loading next visibility...
Identifier
10831, 1976-077CB
Orbit
SSO
Country
Flag of USUS
Related business
Manufacturer
Unknown
Mission
Spacecraft
Bus & Motor
Unknown
Mass
Unknown
Launch date (UTC)
1976-07-29 (50 years ago)
Launch vehicle
Unknown
Launch site
Air Force Western Test Range (AFWTR)
Object type
Payload
Rocket body
Debris
Shape & HBR
Unknown shape, 0.1 m
Radar Cross Section
Small (<0.1 m²)

Expand to show TLE details & history
Last TLE update: 14 hours ago

TLE from 14 hours ago
0 DELTA 1 DEB
1 10831U 76077CB  26145.31911749  .00002882  00000-0  19321-2 0  9991
2 10831 101.0558 111.0466 0602216 278.2969  75.0338 13.37852055 16501
Epoch: 2026-05-25T07:39Z
TLE epoch observation values (Epoch: 2026-05-25T07:39:31.751Z)
Latitude
-0.00002°
Longitude
113.25569°
Altitude
1,029.353 km
Speed
7.381 km/s
True Right ascension
07h 24m 11s
True Declination
0° 00' 00"
Sunlit
Object was in daylight at epoch
Visualization orbit readout
Latitude
Unknown
Longitude
Unknown
Altitude
Unknown
Speed
Unknown
Apparent Right ascension
Unknown
Apparent Declination
Unknown
Sunlit
N/A
Visualization observer readout
Local Sidereal Time
06:26:26
Azimuth
Unknown
Elevation
Unknown
Doppler factor
Unknown
Orbital elements
Apogee altitude
1,565.897 km
Perigee altitude
663.44 km
Semi-major axis
7,492.805 km
Eccentricity
0.06022
Inclination
101.0558°
RAAN
111.0466°
Arg. of periapsis
278.2969°
True anomaly
81.81675°
Mean anomaly
75.0338°
Eccentric anomaly
78.41394°
Mean motion
3.34639 °/min
Orbital period
107.58 mins
BSTAR
0.0019321
Loading maneuver chart data...
Computing Atmospheric mass density...
Loading historical data...
Loading historical data...
Loading historical data...
Loading historical data...
Loading historical data...
Loading historical data...
Loading historical data...

Documentation

Showing up to 5 results
|